Location: Vihti�l�
(61.3833°N, 23.0667°E)
Time: 04:31:44
(UTC+00:00)

PSLV R/B - Pass Details

Date: 29 November 2020
Orbit: 593 x 630 km, 97.9° (Epoch: 22 January)

Event Time Altitude Azimuth Distance (km) Brightness Sun altitude
Rises 03:44:05 0° 16° (NNE) 2,939 7.2 -22.6°
Reaches altitude 10° 03:46:21 10° 10° (N) 2,027 6.3 -22.3°
Enters shadow 03:49:16 35° 343° (NNW) 1,025 4.4 -22.0°
